This is the latest recevied weather packets stored in our database for station/object K8RRT. If no packets are shown the sender has not sent any weather packets the latest 10 day(s).
| Time | Temp. | Humidity | Pressure | Rain* | Wind** | Luminosity | Snow |
|---|---|---|---|---|---|---|---|
| 1777245255 | 17.78° C | 69% | 1012.7 hPa | 0 mm | - | 61 W/m² | - |
| 1777244951 | 17.78° C | 69% | 1012.6 hPa | 0 mm | - | 74 W/m² | - |
| 1777244647 | 17.78° C | 69% | 1012.7 hPa | 0 mm | - | 91 W/m² | - |
| 1777244343 | 17.78° C | 69% | 1012.6 hPa | 0 mm | - | 98 W/m² | - |
| 1777244040 | 17.78° C | 69% | 1012.7 hPa | 0 mm | - | 121 W/m² | - |
| 1777243738 | 17.78° C | 69% | 1012.7 hPa | 0 mm | - | 127 W/m² | - |
| 1777243434 | 17.78° C | 68% | 1012.6 hPa | 0 mm | - | 146 W/m² | - |
| 1777243130 | 17.78° C | 69% | 1012.6 hPa | 0 mm | - | 160 W/m² | - |
| 1777242827 | 17.78° C | 69% | 1012.6 hPa | 0 mm | - | 187 W/m² | - |
| 1777242524 | 18.33° C | 68% | 1012.9 hPa | 0 mm | - | 184 W/m² | - |
| 1777242219 | 18.33° C | 68% | 1012.6 hPa | 0 mm | - | 199 W/m² | - |
| 1777241918 | 18.33° C | 68% | 1012.8 hPa | 0 mm | - | 209 W/m² | - |
| 1777241614 | 18.33° C | 69% | 1012.6 hPa | 0 mm | - | 234 W/m² | - |
| 1777241312 | 17.78° C | 68% | 1012.6 hPa | 0 mm | - | 240 W/m² | - |
| 1777241009 | 18.33° C | 68% | 1012.5 hPa | 0 mm | - | 265 W/m² | - |
| 1777240707 | 18.33° C | 70% | 1012.7 hPa | 0 mm | - | 278 W/m² | - |
| 1777240405 | 18.33° C | 67% | 1012.9 hPa | 0 mm | - | 276 W/m² | - |
| 1777240101 | 17.78° C | 69% | 1012.8 hPa | 0 mm | - | 321 W/m² | - |
| 1777239800 | 18.33° C | 68% | 1013 hPa | 0 mm | - | 342 W/m² | - |
| 1777239495 | 17.78° C | 69% | 1012.7 hPa | 0 mm | - | 327 W/m² | - |
| 1777239193 | 17.78° C | 69% | 1012.8 hPa | 0 mm | - | 357 W/m² | - |
| 1777238890 | 17.78° C | 69% | 1012.5 hPa | 0 mm | - | 379 W/m² | - |
| 1777238587 | 17.78° C | 69% | 1013 hPa | 0 mm | - | 393 W/m² | - |
| 1777238283 | 18.33° C | 68% | 1012.9 hPa | 0 mm | - | 412 W/m² | - |
| 1777237981 | 17.78° C | 70% | 1012.9 hPa | 0 mm | - | 448 W/m² | - |
* Rain latest hour (hover to see other rain measurements)
** Current wind speed in m/s (hover to see current wind gust speed)